www.pogodaiklimat.ru

Погода и климат >> Архив погоды >> Пакистан >> Sibi


ПОГОДА в Sibi

  • Прогноз погоды в Sibi
  • Монитор погоды в Sibi
  • Климат города

АРХИВ ПОГОДЫ в Sibi

Время (UTC), дата Ветер
(напр.,м/с)
 
Видим.   Явления Облачность Т
(С)
Тd
(С)
f
(%)
Тe
(С)
Тes
(С)
Комфортность P
(гПа)
Po
(гПа)
Тmin
(С)
Tmax
(С)
R
(мм)
R24
(мм)
S
(см)
09 13.09 штиль 0 10 км ясно +38.3 +25.4 48 +52 +72 опасность
перегрева
998.6 1000.0
12 13.09 штиль 0 10 км ясно +40.6 +26.2 45 +56 +60 опасность
перегрева
996.8 982.6 +43.1
15 13.09 штиль 0 50 км ?/? +30.1
18 13.09 штиль 0 4000 м ясно +35.6 +23.5 50 +46 +46 опасность
перегрева
1000.3 1000.0
21 13.09 штиль 0 4000 м ясно +33.3 +23.5 57 +44 +44 опасность
перегрева
999.7 1000.0
00 14.09 штиль 0 50 км туман на расстоянии ?/? +30.0 +24.3 72 1009.0 1009.0
03 14.09 штиль 0 10 км ясно +33.9 +24.9 59 +47 +51 опасность
перегрева
1000.3 1006.0 +23.5
06 14.09 штиль 0 10 км ясно +36.7 +24.6 50 +49 +69 опасность
перегрева
1002.9 1000.0
09 14.09 штиль 0 10 км ясно +39.4 +25.8 46 +53 +73 опасность
перегрева
1001.6 1000.0
12 14.09 штиль 0 10 км ясно +40.6 +26.2 45 +56 +59 опасность
перегрева
999.3 1000.7 +44.1
15 14.09 ЮЗ 3 4000 м ясно +36.7 +24.6 50 +49 +49 опасность
перегрева
1001.3 1001.0
18 14.09 штиль 0 4000 м ясно +33.3 +24.4 60 +46 +46 опасность
перегрева
1003.7 1000.0
21 14.09 штиль 0 4000 м ясно +31.1 +23.1 63 +42 +42 опасность
перегрева
1002.9 1000.0
00 15.09 штиль 0 4000 м ясно +29.4 +23.0 68 +39 +39 очень
душно
1002.2 987.3
03 15.09 штиль 0 10 км ясно +31.7 +23.6 62 +43 +46 опасность
перегрева
1003.4 988.7 +22.1
06 15.09 штиль 0 10 км ясно +33.9 +24.9 59 +47 +67 опасность
перегрева
1006.2 1000.0
09 15.09 ЮЗ 2 10 км 5/5 300 м
[Sc]
+36.1 +25.6 55 +51 +59 опасность
перегрева
1003.0 1000.0
12 15.09 ЮВ 2 10 км 5/5 300 м
[Sc]
+38.3 +26.2 50 +54 +55 опасность
перегрева
1001.6 1000.0 +41.1
15 15.09 ЮЗ 2 4000 м 5/5 300 м
[Sc]
+34.4 +25.5 60 +49 +49 опасность
перегрева
1003.6 1000.0
18 15.09 СЗ 3 4000 м 10/5 300 м
[Sc As trans]
+28.9 +21.6 65 +37 +37 очень
душно
1007.4 1000.0
21 15.09 СЗ 2 4000 м 5/5 300 м
[Sc]
+26.7 +20.5 69 +33 +33 очень
душно
1007.1 1000.0
00 16.09 СЗ 2 4000 м 5/5 1200 м
[Sc]
+25.0 +19.6 72 +30 +30 душно 1006.4 991.0
03 16.09 штиль 0 10 км ясно +28.3 +21.9 68 +36 +40 очень
душно
1006.8 991.6 +19.1
06 16.09 ЮЗ 1 10 км 5/5 300 м
[Sc]
+32.2 +23.4 60 +43 +52 опасность
перегрева
1008.7 1000.0
09 16.09 штиль 0 10 км 5/5 300 м
[Sc]
+35.0 +24.5 55 +48 +58 опасность
перегрева
1005.6 1000.0
12 16.09 ЮЗ 2 10 км ясно +37.2 +25.2 50 +51 +53 опасность
перегрева
1001.9 1000.0 +40.1
15 16.09 штиль 0 4000 м ясно +34.4 +25.5 60 +49 +49 опасность
перегрева
1003.2 1000.0
18 16.09 ЮЗ 1 4000 м ясно +31.7 +22.9 60 +42 +42 опасность
перегрева
1004.6 1000.0
21 16.09 штиль 0 4000 м ясно +29.4 +22.2 65 +38 +38 очень
душно
1004.1 1000.0
00 17.09 штиль 0 4000 м ясно +26.7 +20.5 69 +33 +33 очень
душно
1003.8 988.8
03 17.09 штиль 0 10 км ясно +30.6 +20.9 56 +38 +41 очень
душно
1005.5 990.4 +21.0
06 17.09 штиль 0 10 км ясно +33.9 +21.6 49 +42 +62 опасность
перегрева
1006.7 1000.0
09 17.09 штиль 0 10 км ясно +37.2 +21.9 41 +45 +64 опасность
перегрева
1003.1 1000.0
12 17.09 штиль 0 10 км ясно +38.9 +23.5 42 +49 +53 опасность
перегрева
1000.7 997.7 +41.0
15 17.09 ЮВ 1 4000 м ясно +36.1 +21.5 43 +44 +44 опасность
перегрева
1002.0 1000.0
18 17.09 штиль 0 50 км ?/? +33.4 +21.3 49 1003.1 1014.0
21 17.09 штиль 0 4000 м ясно +30.6 +21.7 59 +39 +39 очень
душно
1003.5 1000.0
00 18.09 штиль 0 4000 м ясно +27.8 +21.3 68 +35 +35 очень
душно
1002.7 987.8
03 18.09 штиль 0 10 км ясно +31.1 +22.3 60 +40 +44 очень
душно
1004.2 989.5 +21.5
06 18.09 Ю 1 10 км ясно +34.4 +23.9 54 +46 +64 опасность
перегрева
1005.6 1000.0
09 18.09 штиль 0 10 км ясно +37.8 +23.8 45 +49 +68 опасность
перегрева
1002.3 1000.0
12 18.09 ЮЗ 2 10 км ясно +39.4 +24.2 42 +51 +53 опасность
перегрева
1000.6 1000.0 +41.5
15 18.09 штиль 0 4000 м ясно +36.7 +22.1 43 +45 +45 опасность
перегрева
1001.9 1000.0
18 18.09 штиль 0 4000 м ясно +33.3 +22.7 54 +43 +43 опасность
перегрева
1003.8 1000.0
21 18.09 штиль 0 4000 м ясно +31.1 +21.4 56 +39 +39 очень
душно
1003.4 1000.0
00 19.09 штиль 0 4000 м ясно +29.4 +21.4 62 +37 +37 очень
душно
1003.0 988.1
03 19.09 штиль 0 50 км ?/? +29.0 +30.1 100 1005.0
06 19.09 штиль 0 50 км ?/? +18.0 +30.6 100 1003.0
09 19.09 штиль 0 10 км ясно +38.9 +22.7 40 +48 +67 опасность
перегрева
1002.8 1000.0
12 19.09 штиль 0 10 км ясно +40.6 +23.7 38 +51 +54 опасность
перегрева
1000.0 985.8 +42.1
15 19.09 штиль 0 4000 м ясно +37.8 +23.1 43 +47 +47 опасность
перегрева
1000.7 1000.0
18 19.09 штиль 0 4000 м ясно +34.4 +23.1 52 +45 +45 опасность
перегрева
1003.1 1000.0
21 19.09 штиль 0 4000 м ясно +32.2 +21.8 54 +41 +41 опасность
перегрева
1002.3 1000.0
00 20.09 штиль 0 4000 м ясно +30.0 +22.0 62 +39 +39 очень
душно
1001.5 986.7
03 20.09 штиль 0 50 км ?/? 1008.0

 

Местоположение метеостанции Sibi (Пакистан): широта 29.55 долгота 67.88 высота над уровнем моря 134 м.

В архиве по умолчанию представлена погода в Sibi за последнюю неделю. Архивные данные за месяц целиком и за предыдущие месяцы, начиная с января 2011 года, Вы можете получить, выбрав интересующий диапазон дат из раскрывающегося списка и нажав кнопку "Ввод!".


*Определитесь, кто Вы:
робот инопланетянин человек

Внимание! Время в таблицах - всемирное. Для получения местного времени необходимо прибавить поправку, которая в Sibi равна 5 ч.

Смотрите также архив погоды в соседних городах и на ближайших метеорологических станциях:

Погода в Quetta Airport (Пакистан) (124 км)
Погода в Kalat (Пакистан) (139 км)
Погода в Jacobabad (Пакистан) (150 км)
Погода в Barkhan (Пакистан) (181 км)
Погода в Khuzdar (Пакистан) (227 км)
Погода в Rohri (Пакистан) (232 км)
Погода в Zhob (Пакистан) (252 км)
Погода в Khanpur (Пакистан) (290 км)
Погода в Kandahar (Афганистан) (292 км)
Погода в Pad Idan (Пакистан) (301 км)

Пояснения к столбцам:

Ветер - указаны скорость ветра в м/с - средняя за 10 мин, порывы в срок и между сроками (в фигурных скобках) и направление, откуда дует ветер: С - северный, СВ - северо-восточный, В - восточный, ЮВ - юго-восточный, Ю - южный, ЮЗ - юго-западный, З - западный, СЗ - северо-западный.
Видимость - горизонтальная дальность видимости в метрах или километрах. При видимости от 1 до 10 км при отсутствии осадков обычно наблюдается дымка, при ухудшении видимости до 1 км и менее - туман. В сухую погоду видимость может ухудшаться дымом, пылью или мглою.
Явления - указаны атмосферные явления, наблюдавшиеся в срок или в последний час перед сроком; фигурными скобками обозначены явления, наблюдавшиеся между сроками (за 1-3 часа до срока); квадратными скобками обозначены град или гололедные отложения с указанием их диаметра в мм.
Облачность - указаны через наклонную черту общая и нижняя облачность в баллах и высота нижней границы облаков в метрах; квадратными скобками обозначены формы облаков: Ci - перистые, Cs - перисто-слоистые, Cc - перисто-кучевые, Ac - высококучевые, As - высокослоистые, Sc - слоисто-кучевые, Ns - слоисто-дождевые, Cu - кучевые, Cb - кучево-дождевые. Подробнее классификацию облаков см. в Атласе облаков (PDF).
T - Температура воздуха - температура, измеренная на высоте 2 м над землей.
Td - Температура точки росы - температура, при понижении до которой содержащийся в воздухе водяной пар достигнет насыщения.
f - Относительная влажность воздуха - влажноcть воздуха, измеренная на высоте 2 м над землей.
Te - Эффективная температура - температура, которую ощущает одетый по сезону человек в тени. Характеристика душности погоды. При расчете учитывается влияние влажности воздуха и скорости ветра на теплоощущения человека.
Tes - Эффективная температура на солнце - температура, которую ощущает человек, с поправкой на солнечный нагрев. Характеристика знойности погоды. Зависит от высоты солнца над горизонтом, облачности и скорости ветра. Ночью, в пасмурную погоду, а также при ветре 12 м/с и более поправка равна нулю.
P - Атмосферное давление - приведенное к уровню моря атмосферное давление.
Po - Атмосферное давление - измеренное на уровне метеостанции атмосферное давление.
Tmin - Минимальная температура - минимум температуры воздуха на высоте 2 м над землей.
Tmax - Максимальная температура - максимум температуры воздуха на высоте 2 м над землей.
R - Количество осадков - Количество выпавших осадков за период времени, мм. При наведении курсора мыши на число - период времени, за который выпало указанное количество осадков.
R24 - Количество осадков - Количество выпавших осадков за 24 часа, мм.
S - Снежный покров - Высота снежного покрова, см. При наведении курсора мыши на число - состояние снежного покрова и степень покрытия местности в баллах.